This is the latest recevied weather packets stored in our database for station/object CT7BNL-13. If no packets are shown the sender has not sent any weather packets the latest 10 day(s).
| Time | Temp. | Humidity | Pressure | Rain* | Wind** | Luminosity | Snow |
|---|---|---|---|---|---|---|---|
| 1788303865 | 16.11° C | 88% | 1027.8 hPa | 0 mm | - | 0 W/m² | - |
| 1788302965 | 16.67° C | 85% | 1027.7 hPa | 0 mm | - | 0 W/m² | - |
| 1788302065 | 16.67° C | 83% | 1027.7 hPa | 0 mm | - | 0 W/m² | - |
| 1788301167 | 17.22° C | 81% | 1027.7 hPa | 0 mm | - | 0 W/m² | - |
| 1788300265 | 17.22° C | 79% | 1027.8 hPa | 0 mm | - | 0 W/m² | - |
| 1788299365 | 17.22° C | 78% | 1027.8 hPa | 0 mm | - | 0 W/m² | - |
| 1788298466 | 17.22° C | 79% | 1027.8 hPa | 0 mm | - | 0 W/m² | - |
| 1788297565 | 17.78° C | 77% | 1027.8 hPa | 0 mm | - | 0 W/m² | - |
| 1788296667 | 17.78° C | 76% | 1027.8 hPa | 0 mm | - | 0 W/m² | - |
| 1788295765 | 18.33° C | 76% | 1027.7 hPa | 0 mm | - | 0 W/m² | - |
| 1788294865 | 18.33° C | 75% | 1027.3 hPa | 0 mm | - | 0 W/m² | - |
| 1788293966 | 18.89° C | 73% | 1027.3 hPa | 0 mm | - | 0 W/m² | - |
| 1788293065 | 18.89° C | 72% | 1027.2 hPa | 0 mm | - | 0 W/m² | - |
| 1788291266 | 19.44° C | 69% | 1026.6 hPa | 0 mm | - | 0 W/m² | - |
| 1788290366 | 20° C | 67% | 1026.7 hPa | 0 mm | - | 0 W/m² | - |
| 1788289466 | 20° C | 67% | 1026.5 hPa | 0 mm | - | 4 W/m² | - |
| 1788288566 | 21.11° C | 64% | 1026.5 hPa | 0 mm | - | 16 W/m² | - |
| 1788287666 | 21.67° C | 61% | 1026.6 hPa | 0 mm | - | 31 W/m² | - |
| 1788286765 | 22.22° C | 60% | 1026.3 hPa | 0 mm | - | 48 W/m² | - |
| 1788285865 | 23.33° C | 57% | 1026.1 hPa | 0 mm | - | 73 W/m² | - |
| 1788284966 | 23.89° C | 58% | 1026.1 hPa | 0 mm | - | 106 W/m² | - |
| 1788284065 | 23.89° C | 59% | 1026 hPa | 0 mm | - | 148 W/m² | - |
| 1788283165 | 25° C | 56% | 1025.5 hPa | 0 mm | - | 192 W/m² | - |
| 1788282266 | 25.56° C | 57% | 1025.6 hPa | 0 mm | - | 241 W/m² | - |
| 1788281366 | 26.11° C | 54% | 1025.5 hPa | 0 mm | - | 292 W/m² | - |
* Rain latest hour (hover to see other rain measurements)
** Current wind speed in m/s (hover to see current wind gust speed)